Skip to main content

Horta / Aeroporto

ID 1200505 · 38.5211, -28.7128 map

Latest reading · 2026-05-09 19:00 (Europe/Lisbon)

Temperature
16.0 °C
Humidity
63 %
Pressure
1,020.1 hPa
Precipitation
0.0 mm
Radiation
Wind speed
9.0 km/h
Wind direction
NE · North-east

24-hour history

Time (Europe/Lisbon) Temp Humidity Pressure Rain Wind Dir
2026-05-09 19:00 16.0 °C 63 % 1,020.1 0.0 mm 9.0 km/h NE
2026-05-09 18:00 15.9 °C 66 % 1,019.8 0.0 mm 12.6 km/h NE
2026-05-09 17:00 15.7 °C 65 % 1,020.1 0.0 mm 9.0 km/h
2026-05-09 16:00 16.0 °C 63 % 1,019.9 0.0 mm 8.6 km/h NW
2026-05-09 15:00 15.5 °C 62 % 1,020.3 0.0 mm 14.8 km/h NW
2026-05-09 14:00 15.6 °C 56 % 1,020.5 0.0 mm 11.5 km/h N
2026-05-09 13:00 15.4 °C 53 % 1,020.7 0.0 mm 16.9 km/h N
2026-05-09 12:00 14.7 °C 53 % 1,020.5 0.0 mm 12.2 km/h N
2026-05-09 11:00 14.0 °C 53 % 1,020.4 0.0 mm 18.0 km/h N
2026-05-09 10:00 13.2 °C 58 % 1,020.4 0.0 mm 11.5 km/h N
2026-05-09 09:00 12.4 °C 65 % 1,019.9 0.0 mm 15.8 km/h N
2026-05-09 08:00 11.9 °C 72 % 1,019.4 0.3 mm 10.4 km/h N
2026-05-09 07:00 12.7 °C 67 % 1,019.3 0.0 mm 5.0 km/h E
2026-05-09 06:00 12.8 °C 64 % 1,019.6 0.0 mm 6.1 km/h N
2026-05-09 05:00 12.1 °C 63 % 1,019.7 0.0 mm 5.0 km/h NW
2026-05-09 04:00 12.1 °C 57 % 1,020.1 0.0 mm 6.1 km/h N
2026-05-09 03:00 12.9 °C 60 % 1,020.2 0.0 mm 4.0 km/h NW
2026-05-09 02:00 13.6 °C 61 % 1,020.6 0.0 mm 13.0 km/h N
2026-05-09 01:00 14.0 °C 66 % 1,020.6 0.0 mm 13.0 km/h N
2026-05-09 00:00 14.4 °C 64 % 1,020.2 0.0 mm 10.4 km/h N
2026-05-08 23:00 14.8 °C 65 % 1,019.6 0.0 mm 5.4 km/h NW
2026-05-08 22:00 15.3 °C 65 % 1,018.9 0.0 mm 7.2 km/h NW
2026-05-08 21:00 15.8 °C 64 % 1,018.4 0.0 mm 6.1 km/h N
2026-05-08 20:00 16.3 °C 63 % 1,018.3 0.0 mm 11.9 km/h NW